Home > Weather > San Buenaventura > Past weeks

Flag for USA Past Weather in San Buenaventura, California, USA — Yesterday and Last 2 Weeks

Now
73 °F

Sunny.


Feels Like: 75 °F
Forecast: 62 / 76 °F
Wind: 12 mph from West

Location: Oxnard Airport

Current Time: Aug 29, 2016 at 12:51:29 PM

Latest Report: Aug 29, 2016 at 11:51 AM


Visibility: 10 mi

Pressure: 29.96 "Hg

Humidity: 69%

Dew Point: 62 °F

Location of San BuenaventuraLocation

Past Weather in San Buenaventura — Graph

°F

San Buenaventura Temperature Yesterday

Maximum temperature yesterday: 73 °F (at 12:51 PM)
Minimum temperature yesterday: 59 °F (at 5:51 AM)
Average temperature yesterday: 66 °F

High & Low Weather Summary for the Past Weeks

 TemperatureHumidityPressure
High73 °F (Aug 14, 11:51 AM)100% (Aug 15, 7:51 AM)30.04 "Hg (Aug 15, 7:51 AM)
Low59 °F (Aug 28, 5:51 AM)59% (Aug 27, 1:51 PM)29.81 "Hg (Aug 16, 6:51 PM)
Average65 °F81%29.92 "Hg
* Reported Aug 14 11:51 AM — Aug 29 11:51 AM, San Buenaventura, Weather by CustomWeather, © 2016

Note: Actual official high and low records may vary slightly from our data, if they occured in-between our weather recording intervals... More about our weather records

Advertising

San Buenaventura Weather History for the Previous 24 Hours

Scroll right to see more
 ConditionsComfort  
Time TempWeatherWind HumidityBarometerVisibility
11:51 AM
Mon, Aug 29
73 °FSunny.12 mph69%29.96 "Hg10 mi
10:51 AM71 °FSunny.14 mph71%29.98 "Hg10 mi
9:51 AM70 °FSunny.6 mph76%29.97 "Hg10 mi
8:51 AM68 °FSunny.5 mph78%29.98 "Hg10 mi
7:51 AM64 °FSunny.No wind78%29.96 "Hg10 mi
6:51 AM59 °FClear.No wind93%29.96 "Hg8 mi
5:51 AM60 °FClear.3 mph90%29.96 "Hg9 mi
4:51 AM60 °FClear.No wind90%29.95 "Hg8 mi
3:51 AM61 °FClear.No wind90%29.95 "Hg8 mi
2:51 AM62 °FClear.No wind90%29.95 "Hg8 mi
1:51 AM62 °FClear.No wind93%29.95 "Hg7 mi
12:51 AM63 °FClear.3 mph90%29.96 "Hg8 mi
11:51 PM
Sun, Aug 28
63 °FClear.6 mph90%29.96 "Hg9 mi
10:51 PM63 °FClear.5 mph87%29.96 "Hg10 mi
9:51 PM64 °FClear.5 mph87%29.96 "Hg10 mi
8:51 PM64 °FClear.8 mph87%29.96 "Hg10 mi
7:51 PM65 °FSunny.9 mph85%29.94 "Hg10 mi
6:51 PM66 °FSunny.16 mph81%29.93 "Hg10 mi
5:51 PM69 °FSunny.8 mph76%29.94 "Hg10 mi
4:51 PM72 °FSunny.18 mph66%29.94 "Hg10 mi
3:51 PM73 °FSunny.18 mph64%29.95 "Hg10 mi
2:51 PM73 °FSunny.17 mph62%29.97 "Hg10 mi
1:51 PM72 °FSunny.17 mph66%30.00 "Hg10 mi
12:51 PM73 °FSunny.14 mph64%30.01 "Hg10 mi
Weather by CustomWeather, © 2016

See weather overviewHow to use our weather pages